Date,TemperatureHighF,TemperatureAvgF,TemperatureLowF,DewpointHighF,DewpointAvgF,DewpointLowF,HumidityHigh,HumidityAvg,HumidityLow,PressureMaxIn,PressureMinIn,WindSpeedMaxMPH,WindSpeedAvgMPH,GustSpeedMaxMPH,PrecipitationSumIn
2013-1-1,57.7,49.1,40.5,38.4,26.4,14.2,83,47,21,30.35,30.16,20,9,24,0.35
2013-1-2,65.8,55.8,49.1,25.3,18.5,13.7,32,23,18,30.24,30.10,17,7,66,0.01
2013-1-3,69.4,58.5,52.3,22.8,18.1,14.0,24,21,16,30.27,30.13,22,9,25,0.00
2013-1-4,67.3,55.6,49.5,24.5,17.4,12.7,31,22,17,30.37,30.22,26,8,30,0.90
2013-1-5,64.6,52.6,45.9,43.9,26.1,12.1,86,40,18,30.39,30.24,14,7,19,20.87
2013-1-6,52.7,47.6,43.2,46.6,42.6,40.3,94,83,67,30.31,30.12,19,6,22,0.05
2013-1-7,62.4,53.3,42.8,41.4,31.8,-99.9,92,49,23,30.19,30.04,19,6,23,20.92
2013-1-8,71.4,62.5,56.8,50.6,33.1,19.7,79,37,16,30.18,30.08,14,5,17,0.00
2013-1-9,66.7,59.3,48.2,49.0,41.2,32.6,96,55,31,30.21,30.09,14,8,17,0.00
2013-1-10,54.3,48.0,40.6,48.1,34.4,15.7,97,65,22,30.18,29.96,30,12,37,22.22
2013-1-11,53.1,43.4,37.0,43.2,23.2,16.3,98,46,24,30.30,30.11,21,7,26,0.02
2013-1-12,54.9,43.9,36.0,32.0,21.8,14.2,68,44,21,30.27,30.14,17,7,20,0.00
2013-1-13,53.1,44.1,37.4,28.5,19.7,6.8,66,39,22,30.28,30.13,18,9,30,0.03
2013-1-14,54.0,43.3,35.8,15.4,7.6,-0.3,26,23,20,30.43,30.25,25,10,30,3.20
2013-1-15,59.2,49.4,40.3,28.6,15.3,6.1,48,26,21,30.53,30.38,14,5,16,0.00
2013-1-16,69.4,59.4,49.3,28.9,22.7,17.7,34,24,18,30.44,30.19,24,6,29,0.15
2013-1-17,74.5,65.0,56.5,26.8,20.9,18.2,26,19,13,30.25,30.10,22,11,30,0.28
2013-1-18,75.2,65.7,59.7,27.2,21.1,18.9,21,18,14,30.22,30.08,24,14,32,0.24
2013-1-19,75.2,66.4,60.4,25.8,20.7,18.3,21,18,13,30.24,30.10,22,14,27,0.05
2013-1-20,77.0,66.7,59.4,27.2,20.5,18.2,21,17,13,30.21,30.03,21,12,26,0.00
2013-1-21,79.3,68.8,62.2,26.8,20.8,18.3,19,16,13,30.14,30.04,21,11,30,0.06
2013-1-22,79.7,67.0,60.4,27.2,20.7,18.3,21,17,13,30.16,30.04,19,10,24,0.00
2013-1-23,73.9,66.2,56.5,43.8,27.1,19.6,62,24,16,30.21,30.07,18,9,21,0.00
2013-1-24,63.7,56.1,50.2,56.0,50.6,41.5,94,83,56,30.31,30.18,17,7,21,0.51
2013-1-25,61.7,57.8,55.0,56.1,53.9,50.2,94,87,66,30.23,30.03,17,10,24,0.27
2013-1-26,62.2,56.8,53.6,60.0,54.6,51.8,96,93,85,30.08,29.96,18,5,21,0.18
2013-1-27,55.4,51.0,45.7,52.8,47.8,41.8,99,89,68,30.12,30.02,22,9,28,0.07
2013-1-28,58.3,47.9,41.0,43.3,36.4,23.2,92,68,27,30.28,30.11,20,5,24,0.02
2013-1-29,57.2,48.2,39.9,41.1,36.7,30.4,76,65,46,30.34,30.22,14,5,17,0.00
2013-1-30,68.5,56.3,45.1,45.3,39.5,32.6,79,56,34,30.42,30.26,11,4,14,0.00
2013-1-31,77.5,63.2,47.8,41.8,37.6,32.2,74,41,23,30.33,30.11,12,5,14,0.00
2013-2-1,74.7,63.9,53.6,46.4,40.1,32.9,55,42,23,30.25,30.13,15,7,19,0.00
2013-2-2,73.9,65.3,57.6,49.4,41.1,34.0,57,42,30,30.27,30.14,14,6,18,0.00
2013-2-3,73.2,64.8,59.0,48.0,45.4,42.3,66,50,35,30.21,30.03,17,7,19,0.01
2013-6-29,88.3,84.8,80.2,64.2,62.1,56.7,56,47,40,29.80,29.75,18,8,21,0.00
2013-6-30,94.3,80.7,68.0,66.4,62.2,56.8,85,55,37,29.88,29.74,21,8,27,0.20
2013-7-1,93.7,77.5,67.1,65.8,62.4,36.4,86,62,34,30.20,29.81,16,8,20,77.07
2013-7-2,87.4,74.2,66.6,65.7,61.7,54.5,86,66,44,30.01,29.91,23,8,28,0.57
2013-7-3,84.7,72.9,62.8,67.5,62.9,59.7,98,73,45,29.97,29.81,17,7,21,0.00
2013-7-4,84.7,69.4,59.9,72.7,60.9,57.0,99,78,43,29.89,29.75,19,8,23,0.02
2013-7-5,81.7,70.3,61.2,65.1,61.9,60.0,97,77,51,29.90,29.77,20,10,24,0.04
2013-7-6,80.8,68.3,61.5,63.8,61.7,60.1,97,82,54,29.88,29.74,21,8,24,0.01
2013-7-7,82.9,71.4,61.5,66.9,62.5,60.0,98,76,51,29.91,29.76,22,7,26,0.00
2013-7-8,90.0,75.3,63.5,63.8,60.0,52.8,91,62,31,29.98,29.85,19,7,23,0.00
2013-7-9,84.2,77.0,66.2,64.3,58.3,51.3,85,53,41,30.00,29.92,23,8,29,0.26
2013-7-10,78.6,71.2,64.2,64.8,62.6,57.5,94,75,53,30.01,29.92,16,7,21,0.00
2013-7-11,80.8,69.7,64.9,66.7,64.2,61.3,95,83,55,30.01,29.92,14,6,16,0.00
2013-7-12,82.4,70.9,63.3,74.4,64.0,60.9,99,81,49,29.99,29.85,21,8,24,0.02
2013-7-13,81.5,70.4,60.1,72.4,61.8,59.8,99,77,50,30.00,29.85,21,8,24,0.05
2013-7-14,85.3,71.2,60.4,68.5,60.6,39.8,99,73,37,30.09,29.82,22,8,27,20.92
2013-7-15,83.5,72.7,63.3,65.4,59.1,50.1,98,66,40,29.92,29.80,24,8,30,0.23
2013-7-16,83.5,73.0,63.3,58.8,51.3,44.2,84,49,26,30.04,29.90,21,8,24,0.04
2013-7-17,87.8,74.7,63.1,58.4,50.1,36.7,84,46,18,30.07,29.94,21,8,25,0.02
2013-7-18,82.9,73.2,65.1,61.4,55.4,48.7,80,55,36,30.03,29.87,20,7,24,0.00
2013-7-19,75.6,65.0,59.0,67.9,59.2,55.1,99,83,61,29.96,29.82,20,5,24,0.04
2013-7-20,75.6,69.7,61.9,69.4,64.4,61.3,99,85,67,29.94,29.86,11,5,15,0.00
2013-7-25,71.4,67.2,64.6,61.9,61.4,60.6,87,82,72,30.05,29.97,13,9,16,0.01
2013-7-26,86.7,70.3,61.0,65.5,62.4,59.3,96,78,46,30.14,29.96,16,7,19,0.00
2013-7-27,79.9,68.5,60.1,64.7,61.1,58.0,99,78,56,30.08,29.88,22,9,25,0.02
2013-7-28,76.6,64.7,58.3,67.3,60.1,57.5,99,87,57,30.00,29.87,20,8,25,0.01
2013-7-29,77.4,66.1,58.5,62.3,58.8,56.0,99,80,52,30.10,29.95,20,8,24,0.00
2013-7-30,78.1,65.8,56.5,61.6,58.0,55.9,99,78,50,30.20,30.02,20,9,24,0.00
2013-7-31,73.8,63.4,56.3,61.9,57.7,55.0,99,83,63,30.19,30.00,19,9,23,0.02
2013-8-1,77.5,64.2,56.3,60.1,57.6,55.4,99,81,49,30.12,29.91,16,7,22,0.00
2013-8-2,78.6,65.8,57.0,64.2,58.7,56.7,99,81,50,30.04,29.90,18,9,23,0.01
2013-8-3,78.8,66.1,58.8,63.3,59.9,58.4,99,83,52,30.07,29.94,21,8,24,0.00
2013-8-4,79.2,67.0,58.5,67.3,59.6,57.6,99,80,50,30.09,29.92,19,8,24,0.00
2013-8-5,76.5,61.4,54.9,69.7,58.0,54.0,99,90,55,30.10,29.94,18,6,22,0.01
2013-8-6,78.4,66.4,57.2,66.2,57.1,51.6,99,76,42,30.10,29.98,21,8,24,0.01
2013-8-7,78.3,65.2,56.3,60.3,56.7,50.5,99,77,38,30.16,29.99,17,8,21,0.00
2013-8-8,78.1,66.9,57.2,60.7,57.4,52.0,97,74,46,30.08,29.91,19,8,22,0.00
2013-8-9,75.9,62.6,56.3,65.6,57.5,54.4,99,85,49,30.04,29.93,19,7,22,0.00
2013-8-10,75.0,64.3,56.7,60.5,57.3,19.5,99,80,51,30.12,29.97,21,8,26,79.00
2013-8-11,79.5,66.3,55.0,65.7,57.4,52.8,99,77,43,30.08,29.89,20,8,24,0.02
2013-8-12,81.7,66.9,57.4,67.5,59.6,57.1,99,80,45,30.05,29.89,19,8,22,0.00
2013-8-13,84.9,68.3,58.3,69.1,60.7,58.0,99,81,45,30.05,29.87,20,8,22,0.00
2013-8-14,86.4,68.4,57.9,74.0,61.4,57.6,99,82,45,30.01,29.83,21,8,25,0.05
2013-8-15,87.4,72.3,61.0,66.2,61.7,40.4,98,73,37,30.09,29.88,21,7,27,79.07
2013-8-16,84.6,75.2,63.3,64.8,60.8,52.6,95,64,35,30.01,29.86,21,8,24,0.05
2013-8-17,87.3,78.0,63.9,62.9,59.9,57.0,85,56,36,30.00,29.80,20,7,23,0.07
2013-8-18,80.8,70.4,60.1,63.2,60.2,56.0,95,72,50,29.98,29.83,22,8,27,0.08
2013-8-19,84.0,68.0,60.3,63.9,61.3,59.6,99,82,46,30.01,29.85,19,9,24,0.00
2013-8-20,84.9,70.4,59.0,66.0,60.6,58.2,99,75,43,30.00,29.81,18,8,23,0.00
2013-8-21,91.6,76.7,64.0,61.6,54.8,40.1,85,49,29,29.97,29.84,18,7,21,79.20
2013-8-22,91.6,79.1,66.9,57.2,50.3,39.4,63,38,17,29.97,29.79,19,8,24,0.00
2013-8-23,89.4,77.3,65.5,61.2,53.0,44.9,85,45,26,29.91,29.72,20,7,21,0.00
2013-8-24,86.2,73.9,60.6,62.2,58.7,54.1,95,62,36,29.92,29.75,17,6,20,0.00
2013-8-25,88.2,76.6,65.7,62.8,56.4,48.5,69,51,28,29.95,29.84,19,7,24,0.00
2013-8-26,89.1,81.4,73.9,67.1,59.8,48.8,61,48,35,29.93,29.83,17,7,21,0.00
2013-8-27,87.4,79.8,70.2,63.2,55.9,46.4,59,44,29,29.87,29.76,20,7,24,0.00
2013-8-28,91.6,82.3,73.9,63.3,54.9,46.1,45,39,32,29.91,29.79,21,7,24,0.00
2013-8-29,97.5,87.4,75.2,66.5,56.6,44.5,46,36,25,29.97,29.87,21,8,24,0.00
2013-8-30,90.0,84.5,78.1,72.9,67.9,47.5,76,59,28,30.00,29.92,22,10,27,0.32
2013-8-31,89.1,81.2,73.6,72.7,70.4,67.8,85,71,50,30.00,29.87,22,7,27,0.02
2013-9-1,88.2,79.7,71.4,70.0,68.2,66.2,87,69,51,29.97,29.84,20,10,26,0.00
2013-9-2,90.7,78.3,69.8,70.2,67.3,63.6,92,71,42,29.96,29.80,19,7,23,0.00
2013-9-3,93.0,81.8,72.9,68.4,64.5,59.3,81,58,35,29.92,29.81,20,7,24,0.00
2013-9-4,95.7,85.0,75.4,66.4,60.8,55.8,65,45,34,29.93,29.83,18,7,21,0.01
2013-9-5,95.7,86.6,78.1,63.6,56.5,44.3,53,37,22,29.92,29.81,22,7,26,0.00
2013-9-6,96.4,89.0,78.8,63.2,54.9,48.2,43,32,24,29.88,29.78,18,9,22,0.00
2013-9-7,94.8,84.6,72.9,63.6,56.1,42.4,71,40,25,29.89,29.78,21,9,25,0.00
2013-9-8,86.5,77.3,68.4,61.6,56.3,48.4,75,50,32,29.89,29.75,20,7,24,0.00
2013-9-9,80.2,71.2,62.8,60.7,56.5,44.8,89,62,36,29.86,29.74,23,9,30,0.56
2013-9-10,78.6,65.7,57.9,65.7,59.3,57.1,99,82,48,30.01,29.84,20,8,24,0.01
2013-9-11,78.3,65.7,57.4,64.4,60.0,57.1,99,84,55,30.07,29.92,18,7,23,0.00
2013-9-12,86.9,72.6,60.8,64.3,58.8,51.1,97,66,30,30.00,29.79,17,6,21,0.00
2013-9-13,84.4,74.6,67.1,62.3,56.0,48.4,65,53,37,29.87,29.68,14,5,18,0.02
2013-9-14,85.1,75.4,70.5,61.5,57.6,46.6,66,55,34,29.76,29.72,8,4,10,0.00
2013-9-15,93.4,85.3,72.3,64.7,60.6,49.8,61,44,35,29.79,29.67,19,10,26,0.02
2013-9-16,95.9,77.9,65.8,62.6,57.1,49.1,88,51,22,29.85,29.71,22,7,24,0.00
2013-9-17,78.6,66.3,56.8,64.0,59.9,56.0,99,82,52,29.89,29.72,18,7,23,0.00
2013-9-18,75.4,64.5,57.6,66.6,59.0,56.9,99,84,56,29.88,29.75,19,7,22,0.00
2013-9-19,78.8,65.6,57.6,69.1,60.6,57.3,99,86,54,29.90,29.75,21,8,27,0.14
2013-9-20,70.5,63.4,60.8,63.5,61.4,60.2,98,93,75,29.95,29.87,15,6,20,0.00
2013-9-21,73.9,64.2,59.5,60.8,58.6,56.5,99,83,56,29.96,29.81,25,9,28,0.06
2013-9-22,75.0,64.3,56.8,59.4,54.4,46.4,99,73,45,29.92,29.80,18,7,22,0.00
2013-9-23,82.2,69.1,61.2,52.2,47.7,36.7,65,49,21,29.95,29.84,14,9,17,0.01
2013-9-24,82.6,73.2,62.4,59.0,46.6,38.5,88,41,22,29.97,29.82,24,9,29,0.08
2013-9-25,73.6,65.4,59.5,60.5,56.7,49.3,92,75,47,29.92,29.72,24,8,27,0.57
2013-9-26,70.7,62.1,56.7,56.5,50.9,28.1,96,70,21,29.96,29.78,27,10,33,0.48
2013-9-27,84.6,68.9,55.6,49.5,38.3,27.6,74,39,14,30.04,29.91,17,6,18,0.00
2013-9-28,69.8,68.9,68.2,32.9,30.6,28.5,27,24,22,30.09,30.07,6,4,7,0.00
2013-9-29,85.3,73.1,63.1,49.9,34.8,21.9,54,26,13,30.12,29.95,18,7,21,0.00
2013-9-30,82.6,71.6,61.5,53.2,42.0,22.0,55,36,16,30.04,29.84,18,6,28,0.00
2013-10-1,80.1,69.0,58.5,60.4,53.6,47.0,99,61,35,29.98,29.85,17,7,21,81.44
2013-10-2,75.0,63.1,56.8,61.0,58.2,55.4,99,86,52,30.05,29.89,18,6,19,0.00
2013-10-3,70.5,62.8,57.6,60.3,57.7,54.8,99,85,60,30.00,29.85,19,8,23,0.00
2013-10-4,84.0,70.1,57.9,59.3,39.9,19.9,99,48,13,30.08,29.92,24,8,32,0.00
2013-10-5,87.1,77.1,70.2,33.0,25.6,19.9,17,15,13,30.14,30.00,34,17,46,109.72
2013-10-6,90.9,78.0,70.2,33.0,26.1,19.9,17,15,12,30.11,29.92,18,9,24,0.00
2013-10-7,81.1,71.6,60.4,57.1,35.7,19.9,86,33,14,30.01,29.87,19,7,25,0.00
2013-10-8,70.0,61.5,53.6,60.2,54.3,44.3,99,79,49,30.00,29.85,19,8,24,0.01
2013-10-9,68.7,50.8,48.9,51.4,46.7,-99.9,99,96,93,29.89,29.80,13,6,17,3.68
2013-10-10,59.5,52.1,47.1,52.6,49.1,46.6,99,90,66,30.08,29.88,11,6,14,0.00
2013-10-11,73.4,61.2,51.4,55.5,50.8,45.2,94,71,40,30.11,29.95,15,5,17,0.00
2013-10-12,71.8,62.5,55.0,58.1,53.9,48.7,99,76,48,30.03,29.90,17,7,20,0.00
2013-10-13,68.5,59.5,54.3,55.8,54.1,50.7,99,84,57,30.09,29.96,16,6,21,0.00
2013-10-14,82.4,68.1,52.5,54.3,39.6,25.9,98,48,14,30.09,29.90,18,7,21,0.01
2013-10-15,86.2,73.8,66.9,39.9,29.1,21.5,33,20,13,30.02,29.86,20,10,24,0.02
2013-10-16,84.7,73.8,67.8,33.0,24.9,21.5,20,16,13,30.11,29.97,23,10,30,0.13
2013-10-17,79.9,68.6,59.9,51.4,35.3,24.1,64,32,15,30.10,29.92,20,6,24,0.00
2013-10-18,87.3,70.9,59.4,56.6,43.2,31.2,64,40,16,30.08,29.91,12,5,14,0.00
2013-10-19,85.6,72.5,62.6,56.8,43.1,23.8,72,39,14,30.06,29.94,17,7,21,0.00
2013-10-20,76.3,66.6,59.2,58.0,49.7,40.5,93,57,32,30.03,29.90,16,5,19,0.00
2013-10-21,76.5,64.3,54.0,57.2,53.8,45.0,96,72,33,30.05,29.91,13,6,16,0.00
2013-10-22,67.3,58.7,55.4,59.4,55.1,52.8,96,88,76,30.05,29.93,14,3,17,0.00
2013-11-24,66.0,64.9,63.9,41.6,40.7,39.7,42,41,40,30.17,30.16,5,3,6,0.00
2013-11-25,68.9,58.0,54.9,42.9,40.2,37.0,61,52,31,30.28,30.20,9,3,11,0.00
2013-11-26,75.2,63.7,53.6,45.8,36.8,28.6,72,39,20,30.27,30.07,18,8,24,0.00
2013-11-27,73.4,63.7,56.8,40.5,36.2,30.7,49,37,22,30.11,29.90,16,8,21,0.00
2013-11-28,65.8,59.7,55.4,37.4,35.1,33.8,46,40,34,30.05,30.02,8,5,11,0.00
2013-12-1,79.2,72.2,67.8,38.6,28.7,24.2,33,20,14,30.19,30.11,13,5,17,0.00
2013-12-4,48.0,47.6,47.1,38.9,38.3,37.5,71,70,69,30.06,30.05,10,6,14,0.00
2013-12-5,47.1,45.2,42.1,37.7,36.9,36.1,80,73,68,30.06,30.05,11,7,14,0.00
2013-12-16,84.4,74.7,68.2,37.4,26.2,19.9,23,17,13,30.17,30.06,23,11,28,223.61
2013-12-17,80.2,72.6,66.6,41.5,28.2,21.5,31,20,15,30.14,30.03,26,8,30,223.64